DateTimeUTC,F1_A11,F1_S11,BsB_S11,BsG_S11,BsR_S11,BbsB_S11,BbsG_S11,BbsR_S11,BaB_A11,BaG_A11,BaR_A11,Tu_S11,T_S11,Uu_S11,U_S11,P_S11,T1_A11
2021-08-24T19:00:00Z,00000200,20000000,,,,,,,0000.15,0000.04,0000.01,19.3,25.9,12.1,08.1,0679.4,31.1
2021-08-24T19:01:00Z,00000200,20000000,,,,,,,-000.29,-000.39,0000.10,19.3,25.9,12.1,08.1,0679.4,31.1
2021-08-24T19:02:00Z,00000200,20000000,,,,,,,-000.13,-000.03,-000.50,19.3,25.9,12.1,08.1,0679.4,31.0
2021-08-24T19:03:00Z,00000200,60000000,,,,,,,0000.76,0000.90,0000.94,19.3,25.9,12.1,08.1,0679.4,31.0
2021-08-24T19:04:00Z,00000200,40000000,0004.02,0003.63,0002.25,0001.03,0000.24,0000.59,0000.95,0001.11,0000.92,19.4,25.8,12.1,08.2,0680.4,31.1
2021-08-24T19:05:00Z,00000200,00000000,0004.06,0003.32,0002.00,0000.03,0000.64,0000.48,0000.99,0000.46,0000.62,19.5,25.7,12.1,08.3,0680.5,31.1
2021-08-24T19:06:00Z,00000200,00000000,0003.31,0003.12,0002.02,0000.68,0000.47,0000.04,0000.69,0001.41,0000.62,19.5,25.7,12.3,08.4,0680.4,31.1
2021-08-24T19:07:00Z,00000200,00000000,0003.57,0002.89,0002.27,0001.05,0000.44,0000.29,0000.94,0000.20,0000.82,19.4,25.7,12.3,08.4,0680.4,31.1
2021-08-24T19:08:00Z,00000200,00000000,0004.06,0003.16,0001.98,0000.78,0000.24,0000.37,0001.35,0001.09,0000.85,19.5,25.7,12.3,08.5,0680.4,31.0
2021-08-24T19:09:00Z,00000200,00000000,0004.25,0003.52,0002.25,0001.10,0000.52,0000.24,0000.81,0001.11,0000.54,19.5,25.7,12.3,08.4,0680.5,31.0
2021-08-24T19:10:00Z,00000200,00000000,0002.98,0003.37,0002.03,0001.22,0000.60,0000.43,0000.97,0000.61,0000.59,19.5,25.7,12.4,08.5,0680.4,31.0
2021-08-24T19:11:00Z,00000200,00000000,0004.00,0003.16,0002.10,0000.43,0000.36,0000.13,0000.56,0000.92,0000.33,19.5,25.7,12.4,08.5,0680.5,31.1
2021-08-24T19:12:00Z,00000200,00000000,0003.58,0002.60,0002.33,0000.54,0000.28,0000.57,0001.05,0000.95,0000.92,19.4,25.7,12.5,08.6,0680.5,31.0
2021-08-24T19:13:00Z,00000200,00000000,0003.19,0003.04,0002.23,0000.40,0000.21,0000.49,0001.03,0001.06,0000.69,19.5,25.7,12.5,08.5,0680.5,31.0
2021-08-24T19:14:00Z,00000200,00000000,0002.86,0002.91,0002.11,0000.65,0000.30,0000.48,0000.61,0000.48,0000.86,19.5,25.7,12.5,08.6,0680.5,31.0
2021-08-24T19:15:00Z,00000200,00000000,0003.58,0003.00,0002.00,0000.65,0000.53,-000.02,0000.85,0000.61,0000.28,19.5,25.7,12.5,08.6,0680.5,31.1
2021-08-24T19:16:00Z,00000200,00000000,0003.27,0002.62,0001.72,0000.61,0000.03,0000.41,0000.78,0000.63,0000.83,19.5,25.7,12.5,08.6,0680.5,31.0
2021-08-24T19:17:00Z,00000200,00000000,0003.44,0003.16,0001.85,0001.20,0000.08,0000.62,0000.88,0001.07,0000.76,19.5,25.7,12.5,08.6,0680.4,31.0
2021-08-24T19:18:00Z,00000200,00000000,0003.88,0003.07,0002.13,0000.06,0000.44,0000.04,0000.77,0000.57,0000.39,19.5,25.7,12.4,08.5,0680.5,31.0
2021-08-24T19:19:00Z,00000200,00000000,0003.71,0002.99,0001.97,-000.13,0000.55,0000.35,0000.88,0000.98,0000.46,19.5,25.7,12.5,08.6,0680.4,31.0
2021-08-24T19:20:00Z,00000200,00000000,0002.72,0003.28,0002.41,0000.90,0000.21,0000.26,0000.89,0000.73,0000.78,19.5,25.7,12.5,08.6,0680.5,31.0
2021-08-24T19:21:00Z,00000200,00000000,0003.81,0003.06,0001.90,0000.64,0000.17,0000.14,0000.75,0000.77,0000.36,19.5,25.7,12.5,08.6,0680.5,31.0
2021-08-24T19:22:00Z,00000200,00000000,0004.07,0002.64,0001.98,0000.92,0000.75,0000.14,0000.76,0000.59,0001.16,19.5,25.7,12.5,08.6,0680.6,31.0
2021-08-24T19:23:00Z,00000200,00000000,0003.60,0002.92,0002.00,0000.76,0000.50,0000.39,0000.62,0000.58,0000.45,19.4,25.7,12.6,08.6,0680.5,31.0
2021-08-24T19:24:00Z,00000200,00000000,0003.70,0003.14,0002.26,0000.98,0000.30,0000.50,0000.92,0000.72,0000.31,19.5,25.7,12.5,08.6,0680.5,31.0
2021-08-24T19:25:00Z,00000200,00000000,0003.16,0002.93,0002.09,0000.67,0000.17,0000.48,0000.81,0000.87,0001.07,19.4,25.7,12.5,08.6,0680.5,31.0
2021-08-24T19:26:00Z,00000200,00000000,0003.69,0003.09,0001.89,0000.40,0000.45,0000.56,0000.53,0000.92,0000.52,19.5,25.7,12.5,08.6,0680.5,31.1
2021-08-24T19:27:00Z,00000200,00000000,0003.82,0003.02,0001.78,0001.34,0000.41,0000.60,0000.87,0000.72,0000.39,19.5,25.7,12.5,08.6,0680.5,31.0
2021-08-24T19:28:00Z,00000200,00000000,0002.89,0003.33,0001.91,0000.78,0000.25,0000.15,0001.06,0000.85,0000.85,19.5,25.7,12.4,08.5,0680.5,31.0
2021-08-24T19:29:00Z,00000200,00000000,0003.66,0002.88,0001.68,0000.63,0000.22,0000.16,0000.72,0000.44,0000.57,19.5,25.7,12.5,08.6,0680.5,31.0
2021-08-24T19:30:00Z,00000200,00000000,0003.24,0002.61,0002.08,0000.50,0000.71,0000.32,0000.99,0001.17,0000.48,19.5,25.7,12.6,08.6,0680.5,31.0
2021-08-24T19:31:00Z,00000200,00000000,0003.44,0002.69,0001.80,0000.49,0000.36,0000.57,0000.62,0000.34,0000.67,19.5,25.7,12.7,08.7,0680.5,31.0
2021-08-24T19:32:00Z,00000200,00000000,0003.07,0002.67,0001.75,0000.52,0000.35,0000.22,0000.54,0000.56,0000.60,19.5,25.7,12.6,08.7,0680.5,31.0
2021-08-24T19:33:00Z,00000200,00000000,0003.50,0002.83,0001.68,0000.89,0000.21,0000.30,0000.97,0001.10,0000.39,19.5,25.7,12.7,08.7,0680.5,31.0
2021-08-24T19:34:00Z,00000200,00000000,0003.21,0002.67,0001.72,0000.35,0000.60,0000.30,0000.45,0000.58,0000.74,19.5,25.7,12.6,08.6,0680.5,31.0
2021-08-24T19:35:00Z,00000200,00000000,0003.20,0002.98,0001.57,0000.80,0000.64,0000.15,0001.01,0000.91,0000.76,19.5,25.7,12.7,08.7,0680.4,31.0
2021-08-24T19:36:00Z,00000200,00000000,0003.76,0002.85,0001.61,0000.49,0000.32,0000.33,0000.80,0000.39,0000.45,19.5,25.7,12.7,08.7,0680.4,31.0
2021-08-24T19:37:00Z,00000200,00000000,0003.14,0002.76,0001.86,0000.45,0000.39,0000.30,0001.03,0000.54,0000.66,19.5,25.7,12.8,08.8,0680.4,31.0
2021-08-24T19:38:00Z,00000200,00000000,0003.17,0002.77,0001.40,0000.44,0000.18,0000.18,0000.36,0000.38,0000.43,19.5,25.7,12.6,08.7,0680.5,31.1
2021-08-24T19:39:00Z,00000200,00000000,0003.41,0002.65,0002.06,0000.74,0000.26,0000.38,0000.87,0001.12,0000.11,19.4,25.7,12.7,08.7,0680.4,31.0
2021-08-24T19:40:00Z,00000200,00000000,0003.84,0002.65,0001.58,0001.31,0000.28,0000.39,0000.49,0000.66,0001.12,19.5,25.7,12.7,08.7,0680.4,31.0
2021-08-24T19:41:00Z,00000200,00000000,0002.93,0002.79,0001.78,0000.84,0000.56,-000.23,0000.68,0000.55,0000.54,19.5,25.7,12.7,08.7,0680.4,31.0
2021-08-24T19:42:00Z,00000200,00000000,0002.35,0002.54,0001.68,0000.59,0000.33,0000.16,0000.63,0000.73,0000.58,19.5,25.7,12.8,08.8,0680.4,31.0
2021-08-24T19:43:00Z,00000200,00000000,0003.36,0002.60,0001.39,0001.00,0000.56,0000.34,0000.69,0000.53,0000.41,19.5,25.7,12.7,08.7,0680.4,31.1
2021-08-24T19:44:00Z,00000200,00000000,0003.85,0002.60,0001.37,0000.64,0000.27,0000.21,0000.67,0000.54,0000.65,19.5,25.7,12.8,08.7,0680.4,31.1
2021-08-24T19:45:00Z,00000200,00000000,0003.37,0002.24,0002.06,0000.69,0000.53,0000.54,0001.00,0000.76,0000.16,19.5,25.7,12.7,08.7,0680.4,31.1
2021-08-24T19:46:00Z,00000200,00000000,0003.23,0002.69,0001.62,0000.68,0000.37,0000.01,0000.41,0000.87,0000.59,19.5,25.7,12.7,08.7,0680.4,31.1
2021-08-24T19:47:00Z,00000200,00000000,0003.47,0002.68,0001.66,0000.34,0000.09,0000.43,0000.87,0000.45,0000.57,19.5,25.7,12.7,08.7,0680.3,31.0
2021-08-24T19:48:00Z,00000200,00000000,0002.95,0002.56,0001.48,-000.08,0000.37,0000.39,0000.65,0000.68,0000.71,19.5,25.7,12.8,08.8,0680.3,31.1
2021-08-24T19:49:00Z,00000200,00000000,0002.95,0002.12,0001.77,0000.49,0000.74,0000.36,0000.66,0000.69,0000.55,19.5,25.7,12.8,08.8,0680.4,31.0
2021-08-24T19:50:00Z,00000200,00000000,0003.50,0002.60,0001.57,0000.58,0000.37,0000.24,0000.65,0000.34,0000.37,19.5,25.7,12.8,08.8,0680.3,31.0
2021-08-24T19:51:00Z,00000200,00000000,0002.33,0002.47,0001.52,0000.98,0000.10,0000.48,0000.50,0000.84,0000.66,19.5,25.7,12.8,08.8,0680.3,31.1
2021-08-24T19:52:00Z,00000200,00000000,0002.96,0002.57,0001.42,0000.98,0000.20,0000.33,0000.73,0000.62,0000.34,19.5,25.7,12.7,08.8,0680.3,31.1
2021-08-24T19:53:00Z,00000200,00000000,0002.48,0002.67,0001.56,0000.77,0000.54,0000.22,0000.91,0000.75,0000.76,19.5,25.7,12.7,08.8,0680.3,31.0
2021-08-24T19:54:00Z,00000200,00000000,0003.16,0002.35,0001.73,0000.21,0000.28,0000.34,0000.26,0000.23,0000.47,19.5,25.7,12.8,08.8,0680.3,31.0
2021-08-24T19:55:00Z,00000200,00000000,0002.60,0002.68,0001.42,0000.40,0000.50,0000.33,0000.36,0000.68,0000.33,19.5,25.7,12.7,08.7,0680.3,31.1
2021-08-24T19:56:00Z,00000200,00000000,0002.89,0002.48,0001.65,0000.83,0000.40,0000.06,0001.25,0000.86,0000.92,19.5,25.7,12.8,08.8,0680.3,31.1
2021-08-24T19:57:00Z,00000200,40000000,,,,,,,-000.00,0000.14,-000.18,19.6,25.7,13.3,09.2,0680.1,31.1
2021-08-24T19:58:00Z,00000200,60000000,,,,,,,-000.16,-000.25,-000.21,19.4,25.8,12.7,08.6,0679.2,31.1
2021-08-24T19:59:00Z,00000200,20000000,,,,,,,-000.03,-000.01,0000.25,19.3,25.9,12.7,08.5,0679.2,31.0
